Wind_Speed
7 4 6 9 9 10 8 7 3 4 7 11 15 17 13 20 22 24 22 19 16 21 22 24 22 25 24 23 22 22 24 25 30 26 24 24 25 26 27 28 18 21 19
14 12 8 7 9 9 10 8 7 8 12 17 19 23 25 26 29 25 22 22 23 25 25 26 23 23 21 20 20 20 22 22 28 29 21 23 27 27 32 29 29 20 27
14 13 10 6 7 7 9 10 10 14 16 20 19 23 27 28 30 28 25 22 23 22 23 22 22 21 20 20 20 18 19 19 20 22 23 27 29 29 27 23 22 27 32
18 15 13 8 7 8 12 12 14 17 22 21 20 25 23 26 27 24 25 23 23 22 19 17 17 16 15 15 15 14 15 16 18 20 20 19 18 18 21 16 15 20 20
18 17 17 14 13 16 14 16 14 17 25 19 24 25 23 24 22 23 23 19 17 16 16 15 14 11 9 10 10 10 12 14 16 16 16 16 16 16 17 18 19 19 20
22 20 21 19 19 20 22 21 19 24 29 21 20 19 20 19 20 16 16 14 13 12 11 11 10 9 10 10 10 10 10 12 12 14 15 17 17 18 18 19 20 21 22
24 27 26 22 20 21 24 25 25 22 20 20 17 15 15 15 13 12 11 12 12 14 14 14 13 11 11 11 10 11 11 10 12 13 14 16 16 17 18 18 19 20 20
22 22 23 21 18 17 20 21 20 19 18 15 12 12 11 9 8 9 10 11 13 14 14 14 14 14 14 14 13 14 13 14 15 15 15 16 17 18 19 20 19 18 15
23 22 20 17 17 16 15 15 16 16 13 7 8 7 5 5 7 9 11 12 13 13 15 16 16 16 17 17 17 16 16 16 16 16 16 18 18 19 18 17 17 15 13
12 10 11 11 13 13 14 13 12 8 5 5 3 3 4 5 7 11 12 14 13 11 13 15 16 16 16 16 18 18 17 15 16 16 18 17 19 19 19 16 14 12 12
7 8 10 11 10 9 9 8 5 4 3 1 2 2 4 5 7 8 10 11 12 14 15 16 16 16 18 17 18 18 17 17 15 13 13 18 17 18 20 16 15 14 15
7 10 10 10 9 8 8 5 3 1 2 4 4 2 3 5 6 8 9 10 10 10 12 14 15 14 16 16 19 19 17 15 13 16 14 15 17 18 16 17 17 17 19
10 11 11 10 10 9 6 3 2 2 3 4 4 3 2 6 8 9 10 10 11 11 12 13 14 10 12 13 16 17 15 13 15 16 12 14 16 16 14 17 17 19 21
10 12 13 12 9 8 7 4 4 2 2 1 1 4 4 6 7 9 10 9 10 11 13 13 15 16 19 19 16 16 13 11 11 15 10 15 16 15 14 18 16 17 20
11 11 11 11 9 8 5 7 4 3 1 2 3 4 6 8 11 14 15 14 14 14 15 15 16 18 21 20 20 18 16 14 11 14 11 12 15 15 13 15 15 16 18
12 11 11 10 7 6 6 4 1 1 2 4 5 4 5 7 9 11 11 11 12 13 11 12 15 23 19 14 14 14 15 14 13 13 14 12 13 12 13 15 12 11 16
14 11 9 10 7 2 2 2 3 4 3 4 4 4 4 7 8 8 11 14 9 14 16 9 9 22 22 12 11 12 13 13 12 12 13 15 13 11 11 12 13 11 11
14 13 14 15 10 10 12 3 4 8 10 8 4 3 4 6 6 9 13 15 9 15 15 16 19 21 16 14 13 11 13 14 13 13 13 13 14 11 9 9 9 8 11
15 16 18 19 9 12 5 1 6 8 16 8 6 6 7 6 7 10 16 15 10 8 14 7 13 21 18 15 13 10 11 12 12 12 13 13 14 12 12 11 8 5 5
17 18 18 16 11 10 12 12 7 6 12 7 12 10 14 12 8 8 13 15 11 14 21 16 15 19 14 16 12 9 11 12 12 12 12 11 10 10 10 9 8 4 6
19 15 21 21 16 6 2 5 7 7 6 7 11 14 16 17 14 6 7 17 14 17 25 16 13 16 17 19 19 14 11 13 12 12 12 11 10 10 10 9 8 4 5
6 11 21 21 20 13 10 8 5 8 8 5 10 12 14 13 7 9 7 13 14 20 27 17 17 17 14 14 12 13 14 12 12 13 14 13 12 10 10 10 9 9 7
13 10 10 17 16 17 18 18 13 10 7 5 5 10 12 10 10 4 17 9 13 21 18 20 23 18 14 17 16 15 13 11 10 11 13 14 13 11 10 9 8 9 8
15 15 11 6 8 13 16 20 19 18 14 14 13 9 11 9 8 14 20 19 11 13 13 18 19 23 16 18 24 20 16 18 16 15 12 13 14 14 11 10 9 9 7
12 18 14 12 11 11 13 12 6 4 7 10 6 5 8 9 11 13 14 16 17 19 18 14 16 18 20 18 21 18 13 13 15 16 15 13 13 12 11 11 10 12 11
14 12 16 16 13 7 9 13 17 17 11 12 9 8 12 12 13 16 15 15 19 18 17 17 14 18 25 27 25 18 18 17 17 18 17 14 10 10 10 11 12 8 13
Wind_Direction
299 333 299 299 305 310 300 296 288 289 317 313 305 307 310 341 335 331 330 319 311 309 301 303 296 300 301 294 300 291 295 298 286 283 291 278 282 289 300 308 289 264 259
282 296 314 312 298 291 299 297 288 296 303 301 311 313 334 331 328 326 326 319 314 308 306 306 305 299 297 295 294 300 298 297 296 292 285 276 280 274 282 286 274 283 281
251 277 284 304 309 290 281 275 291 298 299 298 298 318 318 317 321 324 325 326 318 312 307 303 299 301 299 302 303 301 299 297 298 300 297 289 281 278 279 291 299 266 280
251 274 274 283 290 285 277 289 288 314 314 309 309 314 319 318 317 324 324 323 319 315 312 310 308 307 307 304 304 299 299 299 302 302 306 312 313 302 292 298 275 283 289
245 262 265 264 257 259 269 271 293 310 321 307 310 299 313 317 320 328 328 334 337 335 330 323 325 328 327 331 322 305 300 303 310 319 321 318 317 313 306 300 299 293 287
248 254 260 261 269 269 264 267 269 292 300 299 298 312 315 317 330 339 339 346 350 356 2 4 2 1 352 345 341 331 322 312 315 317 317 315 313 310 307 304 299 298 294
251 252 258 256 268 261 263 272 278 287 286 299 309 310 316 332 345 354 10 16 24 32 35 36 33 27 22 20 10 3 357 350 341 336 328 324 320 313 310 306 300 297 295
244 246 251 256 258 255 255 263 271 277 290 299 308 321 336 348 8 26 30 35 39 40 40 38 36 31 28 22 15 8 356 352 345 337 332 328 324 319 316 312 303 303 300
245 249 254 252 250 250 249 254 265 278 284 296 317 340 357 35 34 41 40 28 27 28 32 29 24 21 16 12 7 357 350 346 339 334 336 334 333 333 333 329 320 314 307
236 229 235 241 237 245 250 256 260 256 271 308 344 54 65 56 40 28 21 21 26 31 25 19 17 12 8 6 2 355 350 346 341 339 339 341 343 347 345 341 345 342 333
204 205 210 213 221 229 237 233 229 262 286 271 155 108 76 52 32 23 20 17 15 11 11 14 13 6 8 7 2 359 360 355 358 357 2 353 1 2 2 5 5 359 350
185 192 191 190 195 195 196 205 235 257 208 178 173 134 66 39 23 17 16 10 5 4 1 5 7 15 11 11 7 8 6 10 19 11 2 7 4 4 9 7 5 359 351
172 168 167 173 177 180 178 174 177 168 177 180 208 207 32 6 4 2 0 358 355 350 344 347 344 359 19 17 17 14 14 23 20 16 17 5 5 2 10 10 6 4 3
184 171 170 170 173 171 165 151 170 46 65 171 279 284 324 338 348 356 350 347 341 345 349 345 351 2 9 15 22 15 18 18 23 13 11 5 1 356 358 359 11 12 17
180 179 176 172 173 178 178 175 178 211 199 277 283 283 321 343 351 347 346 352 352 350 351 352 5 4 356 1 356 8 8 7 8 3 9 357 359 3 13 10 13 19 21
190 189 184 169 178 162 119 105 124 212 285 281 274 281 295 328 337 341 356 356 353 359 12 10 347 345 343 355 346 357 2 359 357 354 1 4 3 15 19 16 13 25 26
194 195 181 132 58 11 216 177 66 52 329 306 281 276 298 322 335 348 357 1 14 24 15 26 318 347 348 358 5 4 358 356 355 350 353 352 358 360 4 14 15 19 26
192 185 154 141 169 225 286 17 83 12 342 2 337 323 327 334 345 2 5 7 22 26 348 346 344 329 354 360 358 360 355 1 359 356 357 350 358 2 350 346 6 12 22
199 184 166 154 162 227 209 160 347 315 316 336 3 29 8 7 29 23 12 16 24 18 339 356 313 335 342 346 354 356 357 1 5 6 9 6 359 354 353 358 7 12 22
201 192 171 145 215 238 215 171 190 236 299 328 14 359 2 356 326 18 2 8 4 341 341 344 333 339 353 349 2 354 1 9 10 9 7 4 5 356 351 345 360 353 358
200 188 178 168 191 237 198 132 158 269 337 4 298 303 325 337 337 31 351 353 331 324 324 340 345 348 349 355 351 352 356 356 4 3 1 358 357 355 350 349 349 340 353
172 181 190 184 174 196 186 214 232 235 227 235 294 309 325 349 25 51 359 331 316 302 325 337 350 342 347 347 353 1 359 358 0 358 352 356 351 349 346 346 338 344 349
163 250 208 206 210 194 196 190 193 223 233 271 289 307 311 324 359 351 305 295 285 295 321 327 337 347 352 352 347 358 356 8 8 357 352 353 350 350 342 343 343 331 335
186 182 253 229 180 212 213 208 215 200 200 213 218 241 296 303 274 270 278 301 258 270 287 297 312 318 339 348 341 341 346 346 343 342 345 344 345 343 340 341 342 337 335
173 176 194 236 249 225 185 182 224 247 258 287 245 245 253 268 290 302 309 316 314 307 317 326 326 325 307 327 341 330 328 335 334 326 313 317 329 332 336 336 335 334 334
156 218 192 197 230 226 201 202 198 199 213 234 237 259 276 274 247 248 257 262 277 298 307 311 298 311 316 320 332 339 334 332 332 335 330 314 314 319 327 334 328 297 314
Height
3195 3197 3197 3198 3199 3199 3200 3201 3202 3202 3203 3202 3199 3196 3192 3193 3191 3190 3188 3184 3183 3181 3179 3179 3177 3174 3173 3171 3171 3169 3167 3165 3162 3164 3163 3162 3162 3163 3160 3151 3162 3163 3160
3193 3196 3196 3196 3196 3197 3198 3200 3201 3201 3201 3199 3198 3191 3172 3189 3187 3186 3183 3179 3178 3176 3174 3171 3171 3168 3168 3167 3165 3164 3162 3160 3157 3155 3155 3156 3157 3158 3158 3159 3157 3155 3156
3192 3196 3195 3195 3195 3196 3197 3198 3199 3199 3199 3196 3195 3192 3189 3187 3184 3180 3177 3175 3173 3171 3169 3167 3166 3164 3163 3161 3159 3158 3157 3156 3153 3150 3150 3149 3149 3149 3149 3149 3144 3147 3147
3192 3194 3193 3193 3194 3195 3195 3196 3195 3196 3195 3193 3191 3189 3187 3184 3182 3177 3174 3171 3169 3167 3164 3162 3161 3159 3158 3156 3155 3153 3153 3152 3150 3147 3146 3144 3141 3141 3141 3140 3141 3139 3138
3188 3189 3190 3191 3192 3192 3193 3193 3194 3194 3192 3191 3190 3186 3184 3181 3178 3174 3171 3167 3166 3164 3162 3160 3158 3156 3155 3154 3153 3151 3150 3149 3146 3145 3142 3140 3140 3138 3136 3135 3133 3132 3132
3183 3185 3186 3188 3188 3190 3190 3191 3193 3192 3191 3189 3188 3183 3180 3179 3175 3172 3170 3167 3166 3163 3161 3159 3157 3156 3155 3153 3151 3149 3148 3146 3145 3143 3140 3137 3136 3134 3133 3130 3128 3127 3126
3179 3181 3182 3185 3185 3187 3187 3188 3190 3189 3188 3186 3183 3181 3179 3177 3174 3172 3171 3169 3167 3164 3162 3159 3158 3156 3155 3153 3151 3149 3147 3146 3144 3141 3138 3136 3134 3131 3129 3127 3125 3123 3121
3174 3175 3178 3180 3181 3183 3184 3185 3185 3185 3184 3182 3180 3179 3177 3176 3175 3174 3173 3170 3168 3166 3164 3162 3160 3158 3156 3154 3152 3149 3147 3145 3142 3139 3137 3134 3131 3128 3125 3122 3120 3119 3117
3169 3171 3172 3174 3176 3179 3181 3182 3182 3181 3181 3180 3179 3178 3177 3177 3176 3175 3174 3172 3170 3168 3166 3164 3162 3160 3157 3155 3152 3150 3147 3144 3140 3138 3135 3133 3130 3126 3123 3120 3117 3116 3115
3164 3166 3169 3171 3173 3176 3178 3179 3179 3180 3179 3179 3178 3178 3178 3178 3177 3175 3174 3172 3171 3170 3168 3165 3163 3161 3159 3156 3153 3149 3146 3143 3140 3137 3134 3131 3128 3125 3122 3119 3117 3115 3113
3162 3165 3167 3169 3171 3173 3175 3176 3177 3177 3177 3178 3179 3179 3179 3179 3178 3177 3176 3174 3172 3170 3168 3166 3164 3161 3159 3155 3152 3149 3145 3142 3139 3137 3134 3131 3128 3125 3121 3118 3116 3114 3112
3162 3165 3167 3168 3171 3173 3175 3176 3176 3177 3178 3179 3179 3180 3179 3179 3179 3177 3176 3175 3173 3172 3170 3167 3165 3161 3159 3155 3152 3149 3145 3143 3140 3138 3135 3132 3129 3126 3122 3119 3117 3114 3109
3164 3165 3167 3169 3172 3174 3175 3176 3177 3178 3178 3179 3179 3179 3180 3179 3179 3177 3176 3175 3173 3171 3169 3166 3165 3162 3159 3156 3153 3149 3147 3144 3142 3139 3136 3133 3130 3127 3125 3122 3118 3115 3111
3165 3166 3168 3170 3172 3174 3175 3176 3176 3177 3178 3179 3179 3179 3179 3179 3179 3178 3176 3175 3173 3171 3169 3165 3163 3160 3157 3154 3153 3150 3148 3146 3143 3140 3137 3133 3131 3128 3125 3122 3120 3117 3113
3165 3167 3168 3170 3172 3174 3175 3177 3178 3179 3180 3180 3180 3179 3180 3179 3178 3176 3174 3172 3170 3168 3166 3164 3163 3160 3157 3153 3150 3149 3148 3145 3143 3141 3138 3135 3132 3129 3127 3124 3122 3119 3116
3165 3167 3168 3170 3172 3174 3176 3178 3179 3180 3180 3180 3180 3180 3180 3179 3178 3177 3174 3173 3171 3168 3166 3164 3163 3161 3158 3156 3153 3150 3148 3146 3143 3141 3139 3136 3133 3131 3129 3126 3123 3121 3119
3164 3166 3168 3169 3172 3174 3176 3177 3178 3179 3180 3179 3179 3179 3179 3179 3178 3176 3175 3173 3171 3169 3167 3165 3164 3160 3157 3155 3152 3150 3148 3146 3144 3141 3139 3136 3134 3131 3129 3127 3125 3122 3121
3162 3165 3167 3171 3174 3176 3177 3177 3178 3179 3178 3178 3178 3178 3178 3178 3178 3176 3175 3172 3171 3169 3168 3164 3163 3160 3157 3155 3153 3150 3148 3145 3143 3141 3140 3137 3134 3132 3129 3128 3126 3125 3123
3160 3163 3166 3171 3175 3176 3178 3178 3179 3179 3178 3179 3179 3179 3179 3178 3177 3176 3175 3174 3172 3170 3169 3166 3164 3160 3156 3154 3152 3150 3148 3145 3143 3140 3139 3137 3134 3132 3130 3128 3127 3126 3125
3158 3161 3165 3168 3174 3176 3177 3178 3180 3180 3181 3178 3178 3179 3180 3179 3177 3176 3176 3174 3172 3171 3169 3167 3162 3161 3156 3153 3152 3150 3147 3145 3143 3141 3138 3136 3134 3132 3130 3129 3127 3126 3125
3157 3160 3163 3166 3169 3175 3175 3177 3179 3181 3181 3180 3180 3180 3180 3179 3176 3174 3175 3175 3173 3171 3168 3167 3163 3159 3156 3153 3150 3149 3148 3145 3143 3141 3139 3137 3135 3132 3130 3128 3127 3126 3126
3155 3158 3162 3165 3168 3171 3176 3178 3179 3180 3181 3182 3179 3180 3180 3180 3178 3176 3175 3174 3172 3171 3167 3165 3163 3161 3158 3155 3152 3149 3147 3145 3143 3141 3139 3137 3134 3132 3130 3128 3126 3125 3125
3156 3157 3160 3163 3166 3168 3172 3174 3176 3178 3180 3180 3180 3179 3180 3180 3178 3175 3176 3176 3173 3171 3167 3164 3161 3160 3158 3154 3151 3149 3147 3145 3143 3141 3138 3136 3134 3132 3130 3128 3126 3124 3124
3155 3159 3159 3161 3162 3165 3168 3170 3172 3174 3176 3177 3178 3178 3177 3178 3178 3176 3174 3173 3171 3169 3167 3164 3161 3158 3157 3156 3152 3149 3145 3142 3140 3139 3138 3136 3134 3131 3129 3127 3125 3123 3122
3153 3155 3160 3160 3161 3163 3165 3168 3172 3173 3175 3175 3175 3177 3177 3177 3176 3174 3172 3169 3167 3166 3164 3162 3159 3156 3154 3154 3152 3148 3146 3143 3140 3138 3135 3134 3132 3130 3128 3126 3124 3123 3121
3152 3153 3156 3159 3159 3160 3162 3165 3167 3169 3171 3172 3172 3173 3172 3171 3171 3170 3169 3168 3166 3163 3161 3160 3158 3154 3151 3149 3148 3146 3144 3141 3138 3135 3131 3129 3129 3127 3126 3124 3122 3121 3120